Regional Weather Roundup
Issued by NWS Green Bay, WI

Home | Current Version | Previous Version | Text Only | Print | Product List | Glossary On
Versions: 1 2 3 4 5 6 7 8 9 10 11 12 13 14 15 16 17 18 19 20 21 22 23 24 25 26 27 28 29 30 31 32 33 34 35 36 37 38 39 40 41 42 43 44 45 46 47 48 49 50
000
ASUS43 KGRB 052011
RWRGRB

NORTH-CENTRAL AND NORTHEAST WISCONSIN REGIONAL WEATHER ROUNDUP
NATIONAL WEATHER SERVICE GREEN BAY WI
200 PM CST MON DEC 05 2016

WIZ005-009-010>012-018-019-052100-
NORTH CENTRAL WISCONSIN

CITY           SKY/WX    TMP DP  RH WIND       PRES   REMARKS
IRONWOOD       SUNNY     39  29  67 S6        29.79F
MANITOWISH WTR SUNNY     35  30  84 SE7       29.79F
ARBOR VITAE    SUNNY     38  31  76 SE3       29.79F
EAGLE RIVER    SUNNY     37  29  73 CALM      29.80F
LAND O LAKES   SUNNY     38  30  71 S5        29.82S
RHINELANDER    SUNNY     38  30  73 S7        29.81F
PHILLIPS       MOSUNNY   36  30  80 SE5       29.77F
ANTIGO         SUNNY     34  30  86 SE9       29.84F
TOMAHAWK       SUNNY     34  29  81 CALM      29.82S
MERRILL        PTSUNNY   34  31  88 SE5       29.83F
$$

WIZ013-073-052100-
NORTHEAST WISCONSIN

CITY           SKY/WX    TMP DP  RH WIND       PRES   REMARKS
IRON MOUNTAIN  SUNNY     40  28  62 S9        29.84S
MARINETTE      MOSUNNY   36  30  79 SW8       29.91F
OCONTO         PTSUNNY   35  30  82 S5        29.92R
$$

WIZ017-030-035>037-045-052100-
CENTRAL WISCONSIN

CITY           SKY/WX    TMP DP  RH WIND       PRES   REMARKS
MEDFORD        CLOUDY    32  30  93 SE8       29.79F
WAUSAU         CLOUDY    33  30  88 SE10      29.82F
MOSINEE        CLOUDY    32  32 100 SE7       29.84F FOG
MARSHFIELD     CLOUDY    33  31  92 S13       29.82S FOG
WISC RAPIDS    CLOUDY    34  33  96 S7        29.87S FOG
STEVENS POINT  CLOUDY    32  32 100 SE8       29.86F FOG
WAUPACA        CLOUDY    36  33  88 SE8       29.89F FOG
SHAWANO        CLOUDY    36  31  83 SW5       29.91R
CLINTONVILLE   CLOUDY    34  32  93 S8        29.89F
WAUTOMA        CLOUDY    35  32  88 S9        29.89F FOG
$$

WIZ038-039-048-051-052100-
FOX VALLEY

CITY           SKY/WX    TMP DP  RH WIND       PRES   REMARKS
NWS GREEN BAY  CLOUDY    36  33  89 S10       29.93R
APPLETON       CLOUDY    34  34 100 S12       29.90S FOG
OSHKOSH        CLOUDY    33  31  92 S12       29.91F FOG
FOND DU LAC    CLOUDY    33  30  88 S12       29.92F
$$

WIZ022-050-052-052100-
EAST CENTRAL WISCONSIN

CITY           SKY/WX    TMP DP  RH WIND       PRES   REMARKS
EPHRAIM        FAIR      37  31  78 SW7       29.90S
WASHINGTON ISL MOCLDY    39  31  72 SW12      29.90F
STURGEON BAY   MOSUNNY   37  31  78 S7        29.92F
MANITOWOC      CLOUDY    35  31  85 SW9       29.96R
SHEBOYGAN      CLOUDY    34  31  88 S10       29.95R
$$

LMZ563-521-522-541>543-052100-
LAKESHORE

STATION/POSITION TIME  TEMP    WIND        PRES    VSBY  WAVE
                       AIR SEA DIR/SP/G                  HT/PER
                 (UTC) (F)     (DEG/KT/KT) (MB)    (MI)  (FT/S)
SHEBOYGAN LKSHOR 2000   35     210/ 12/ 13 1014.5R
KEWAUNEE LKSHORE 1948   36     180/ 10/ 11 1013.2F
ALGOMA MARINA    1921          200/  9/ 10   N/A
NORTHPORT PIER   1940   42     260/  3/  9 1012.9F
SISTER BAY LKSHO 1938   41     240/ 14/ 16   N/A
CHAMBERS ISLAND  1940   38     200/  7/ 14 1012.5F
MENOMINEE LKSHOR 1948   36     200/  7/  9 1012.1F
$$




USA.gov is the U.S. government's official web portal to all federal, state and local government web resources and services.